TimeMST,TemperatureF,Dew PointF,Humidity,Sea Level PressureIn,VisibilityMPH,Wind Direction,Wind SpeedMPH,Gust SpeedMPH,PrecipitationIn,Events,Conditions,WindDirDegrees,DateUTC
12:54 AM,37.9,28.9,70,29.93,10.0,ENE,3.5,-,N/A,,Clear,60,2012-10-17 07:54:00
1:54 AM,36.0,28.0,73,29.95,10.0,Calm,Calm,-,N/A,,Clear,0,2012-10-17 08:54:00
2:54 AM,35.1,27.0,72,29.94,10.0,ENE,3.5,-,N/A,,Clear,70,2012-10-17 09:54:00
3:54 AM,34.0,28.0,79,29.95,10.0,Calm,Calm,-,N/A,,Clear,0,2012-10-17 10:54:00
4:54 AM,32.0,26.1,79,29.96,10.0,Calm,Calm,-,N/A,,Clear,0,2012-10-17 11:54:00
5:54 AM,28.9,25.0,85,30.01,10.0,Calm,Calm,-,N/A,,Clear,0,2012-10-17 12:54:00
6:54 AM,30.9,26.1,82,30.07,10.0,NE,5.8,-,N/A,,Clear,50,2012-10-17 13:54:00
7:54 AM,44.1,32.0,63,30.05,10.0,Calm,Calm,-,N/A,,Clear,0,2012-10-17 14:54:00
8:54 AM,57.9,33.1,39,29.95,10.0,Calm,Calm,-,N/A,,Clear,0,2012-10-17 15:54:00
9:54 AM,64.0,30.9,29,29.97,10.0,North,9.2,-,N/A,,Clear,360,2012-10-17 16:54:00
10:54 AM,66.9,21.9,18,29.98,10.0,NNW,10.4,20.7,N/A,,Clear,330,2012-10-17 17:54:00
11:54 AM,69.1,9.0,10,29.99,10.0,North,9.2,19.6,N/A,,Clear,360,2012-10-17 18:54:00
12:54 PM,70.0,-2.0,6,29.95,10.0,NW,6.9,-,N/A,,Clear,320,2012-10-17 19:54:00
1:54 PM,71.1,-4.0,5,29.94,10.0,Variable,5.8,-,N/A,,Clear,0,2012-10-17 20:54:00
2:54 PM,72.0,-0.0,6,29.94,10.0,Variable,6.9,-,N/A,,Clear,0,2012-10-17 21:54:00
3:54 PM,70.0,-4.0,5,29.97,10.0,NW,8.1,-,N/A,,Clear,320,2012-10-17 22:54:00
4:54 PM,66.9,1.9,8,30.00,10.0,WNW,9.2,-,N/A,,Clear,300,2012-10-17 23:54:00
5:54 PM,61.0,9.0,13,30.05,10.0,Variable,3.5,-,N/A,,Clear,0,2012-10-18 00:54:00
6:54 PM,43.0,12.9,30,30.14,10.0,Calm,Calm,-,N/A,,Clear,0,2012-10-18 01:54:00
7:54 PM,42.1,15.1,34,30.11,10.0,Calm,Calm,-,N/A,,Clear,0,2012-10-18 02:54:00
8:54 PM,37.9,16.0,41,30.08,10.0,NE,3.5,-,N/A,,Clear,50,2012-10-18 03:54:00
9:54 PM,37.0,17.1,44,30.07,10.0,NE,3.5,-,N/A,,Clear,50,2012-10-18 04:54:00
10:54 PM,34.0,18.0,52,30.08,10.0,Calm,Calm,-,N/A,,Clear,0,2012-10-18 05:54:00
11:54 PM,32.0,17.1,54,30.08,10.0,Calm,Calm,-,N/A,,Clear,0,2012-10-18 06:54:00